Location: Vancouver
(49.2500°N, 123.1333°W)
Time: 23:08:21
(UTC-07:00)

Daily predictions for brighter satellites

Satellite Brightness Start Highest point End
(mag) Time Altitude Azimuth Time Altitude Azimuth Time Altitude Azimuth
Cosmos 2266 Rocket 4.2 21:51:40 10° N 21:58:08 88° W 22:04:30 10° S
Meteor 2-5 Rocket 4.1 21:55:22 10° S 22:01:08 55° E 22:06:55 10° NNE
NOSS 2-3 (E) 4.1 21:58:30 10° SSW 22:02:59 52° ESE 22:08:17 10° NE
Meteor 1-24 Rocket 4.5 21:57:47 10° SSE 22:03:20 40° E 22:08:55 10° NNE
ERS-2 4.5 22:03:26 10° SSW 22:06:20 21° W 22:09:13 10° NW
NOSS 3-1 (C) 4.4 22:02:35 10° WSW 22:08:22 54° NW 22:15:02 10° NE
Cosmos 921 Rocket 4.1 22:06:04 10° N 22:10:10 35° ENE 22:14:17 10° SE
Helios 1B rocket 3.8 22:08:16 10° NE 22:11:32 22° E 22:14:46 10° SE
Cosmos 972 Rocket 4.5 22:07:09 10° SSW 22:12:00 63° WNW 22:16:59 10° NNE
CSL-04 DEB 4.3 22:08:30 10° SSE 22:12:26 83° ENE 22:16:23 10° NNW
Cosmos 1726 3.7 22:09:34 10° NNE 22:12:36 23° ENE 22:15:38 10° SE
ERS-1 Rocket 3.0 22:07:56 10° SSE 22:12:59 87° ENE 22:18:03 10° NNW
ATLAS 2AS CENTAUR R/B 3.8 22:07:02 10° SSE 22:13:32 30° ESE 22:20:14 10° NE
ARGOS 3.8 22:13:02 10° S 22:18:21 56° W 22:23:43 10° NNW
CARTOSAT-1 4.4 22:16:43 10° SE 22:20:43 39° ENE 22:24:46 10° N
Terra 2.6 22:18:37 10° SE 22:23:03 39° ENE 22:27:28 10° N
Cosmos 1844 Rocket 3.6 22:19:00 10° SSE 22:23:46 28° ESE 22:28:31 10° NE
Cosmos 1315 Rocket 2.9 22:19:47 10° S 22:23:46 64° E 22:27:50 10° NNE
Cosmos 1452 Rocket 4.2 22:18:47 10° NNW 22:23:55 52° WSW 22:29:02 10° S
Cosmos 1908 3.9 22:20:31 10° N 22:24:12 42° ENE 22:27:38 11° SE
Iridium 4 Rocket 3.8 22:18:52 10° S 22:24:38 81° W 22:30:01 10° N
SL-08 RB Rocket 4.5 22:24:03 10° S 22:28:35 52° W 22:33:11 10° NNW
Cosmos 1553 Rocket 4.5 22:25:07 10° SSE 22:30:44 41° E 22:36:22 10° NNE
SPOT 1/Viking Rocket 3.6 22:26:57 10° SSE 22:32:06 82° ENE 22:37:16 10° NNW
H-2A R/B 2.8 22:27:50 10° S 22:32:56 51° W 22:38:12 10° NNW
Cosmos 2082 Rocket 4.3 22:29:46 10° N 22:33:44 19° NE 22:37:41 10° E
DMSP B5D2-2 4.1 22:28:56 10° NNE 22:34:12 68° ESE 22:39:24 10° S
SPOT 5 3.1 22:31:38 10° SSE 22:36:38 88° WSW 22:41:55 10° NNW
Resurs 01 Rocket 4.4 22:37:39 10° WSW 22:39:20 12° W 22:41:02 10° WNW
Cosmos 1842 Rocket 4.3 22:37:11 10° N 22:41:16 38° ENE 22:44:40 14° SE
NOSS 2-3 (C) 4.0 22:36:52 10° SW 22:41:34 87° NW 22:47:17 10° NE
Lacrosse 5 2.5 22:42:29 10° SSW 22:47:00 33° SE 22:51:31 10° ENE
Cosmos 1110 Rocket 4.1 22:42:49 10° NNW 22:48:01 73° ENE 22:52:23 15° SSE
Cosmos-2242 3.3 22:44:57 10° NNW 22:49:19 71° W 22:53:34 11° S
Spot 1 4.2 22:48:11 14° SSE 22:51:47 72° ENE 22:56:18 10° NNW
Cosmos 2263 Rocket 3.2 22:47:30 10° SW 22:53:02 50° NW 22:58:34 10° NNE
Cosmos 1269 Rocket 4.0 22:49:21 10° S 22:54:35 67° ESE 22:59:53 10° NNE
Cosmos 1238 Rocket 2.7 22:51:52 10° SSW 22:54:47 55° WNW 22:57:44 10° N
CZ-2C R/B 3.5 22:50:13 14° SSE 22:55:17 66° ENE 23:01:03 10° N
Cosmos 1953 Rocket 3.9 22:52:01 10° SSW 22:56:19 65° WNW 23:00:42 10° N
Cosmos 1340 2.8 22:57:46 10° N 23:01:33 63° ENE 23:04:11 19° SSE
Aureole 1 Rocket 3.1 22:58:28 10° SW 23:01:36 58° WNW 23:05:25 10° NNE
CENTAUR R/B 4.1 22:57:57 10° NW 23:05:02 42° NNE 23:12:50 10° E
Cosmos 1300 3.5 23:01:35 10° N 23:05:13 39° ENE 23:07:36 18° SE
Cosmos 1331 Rocket 4.0 23:01:03 10° NNW 23:06:16 90° ENE 23:10:19 17° SSE
IGS 5A 3.6 23:03:48 15° S 23:07:11 72° WSW 23:11:21 10° NNW
Cosmos 1346 Rocket 3.7 23:04:15 10° NNW 23:08:02 44° W 23:11:36 11° SSW
APEX 3.6 23:06:38 10° NNW 23:09:21 38° NE 23:11:21 18° ESE
CZ-2C R/B 3.2 23:04:38 10° NNE 23:09:50 41° E 23:13:35 17° SSE
Cosmos 2084 3.6 23:09:26 10° NW 23:13:12 51° SW 23:15:33 21° SSE
Cosmos 1674 2.8 23:10:35 12° SSW 23:14:08 76° W 23:18:00 10° N
SL-14 R/B 4.0 23:12:23 20° SSE 23:14:30 36° E 23:18:07 10° NNE
Cosmos 1626 3.9 23:13:23 16° ESE 23:14:51 19° E 23:17:34 10° NE
Cosmos 1745 Rocket 4.1 23:13:46 10° N 23:20:10 88° W 23:25:17 16° S
BREEZE-M R/B 4.1 23:16:07 10° WNW 23:23:11 86° SSW 23:29:15 10° ESE
Mayak 0.8 23:22:15 10° ENE 23:24:20 13° E 23:25:43 12° ESE
Cosmos 2285 Rocket 4.3 23:18:41 10° SSW 23:25:00 72° WNW 23:31:20 10° NNE
Cosmos 494 Rocket 4.0 23:20:17 11° SSW 23:25:16 71° ESE 23:30:32 10° NNE
Cosmos 2251 Rocket 4.2 23:22:04 19° SSE 23:25:24 39° ESE 23:30:20 10° NE
Cosmos 1302 Rocket 4.0 23:25:01 10° NNW 23:30:22 83° ENE 23:33:58 21° SSE
COSMOS 2406 3.4 23:25:14 10° NNW 23:31:00 71° WSW 23:35:02 20° SSE
USA 238 DEB 3.9 23:25:29 10° NW 23:32:32 68° SW 23:37:51 19° SSE
USA 238 3.9 23:25:35 10° NW 23:32:39 68° SW 23:37:57 19° SSE
Cosmos 2278 Rocket 3.0 23:32:05 20° SSE 23:35:09 34° ESE 23:40:14 10° NE
BREEZE-M DEB (TANK) 2.4 23:29:55 10° WSW 23:35:24 59° SSE 23:37:50 10° E
Meteor 1-29 3.5 23:34:02 10° N 23:37:24 55° WNW 23:40:09 14° SSW
Cosmos 2221 2.5 23:34:09 10° N 23:38:32 77° E 23:41:02 24° SSE
ATLAS 3B R/B 2.6 23:36:50 10° NW 23:43:28 73° SW 23:48:02 21° SSE
Helios 1B rocket 3.7 23:43:06 10° N 23:46:58 40° WNW 23:50:48 10° SW
Cosmos 1726 3.6 23:44:36 10° NNW 23:47:55 30° W 23:50:27 15° SSW
NOSS 3-2 (A) 4.0 23:40:39 10° NW 23:48:04 80° SW 23:54:14 19° SSE
S3M 4.4 23:43:26 10° SSW 23:49:40 65° WNW 23:56:03 10° N
